Flag for U.S.A. Weather past 2 weeks in Portsmouth, Virginia, U.S.A.

Now
61 °F

Passing clouds.


Feels Like: 61 °F
Forecast: 41 / 61 °F
Wind: 7 mph from Southwest

Location: Norfolk Naval Air Station

Current Time: Mar 30, 2015 at 7:59:13 PM

Latest Report: Mar 30, 2015 at 6:59 PM


Visibility: 10 mi

Pressure: 29.90 "Hg

Humidity: 54%

Dew point: 44 °F

Location of PortsmouthLocation

Historic Weather in Portsmouth — Graph

°F

Portsmouth temperature yesterday

Maximum temperature yesterday: 49 °F (at 5:59 PM)
Minimum temperature yesterday: 32 °F (at 5:59 AM)
Average temperature yesterday: 40 °F

Past Weeks' High & Low Weather Summary

 TemperatureHumidityPressure
High81 °F (Mar 17, 12:59 PM)86% (Mar 20, 10:59 AM)30.42 "Hg (Mar 20, 10:59 AM)
Low32 °F (Mar 29, 5:59 AM)18% (Mar 18, 3:59 PM)29.66 "Hg (Mar 27, 3:59 AM)
Average51 °F54%30.09 "Hg
* Reported Mar 15 6:59 PM — Mar 30 6:59 PM, Portsmouth, Weather by CustomWeather, © 2015

Note: Actual official high and low records may vary slightly from our data, if they occured in-between our weather recording intervals... More about our weather records

Advertising

Portsmouth weather history for previous 24 hours

 ConditionsComfort  
Time TempWeatherWind HumidityBarometerVisibility
6:59 PM
Mon, Mar 30
61 °FPassing clouds.7 mph54%29.90 "Hg10 mi
5:59 PM62 °FPassing clouds.7 mph52%29.89 "Hg10 mi
4:59 PM62 °FScattered clouds.9 mph52%29.90 "Hg10 mi
2:59 PM57 °FPartly sunny.12 mph62%29.93 "Hg10 mi
1:59 PM53 °FBroken clouds.9 mph72%29.95 "Hg10 mi
12:59 PM50 °FMostly cloudy.13 mph71%29.98 "Hg10 mi
11:59 AM48 °FLight rain. More clouds than sun.14 mph71%30.01 "Hg8 mi
10:59 AM48 °FLight rain. Mostly cloudy.12 mph63%30.04 "Hg5 mi
9:59 AM50 °FOvercast.14 mph44%30.05 "Hg10 mi
8:59 AM34 °FLight rain. Overcast.16 mph44%30.05 "Hg7 mi
7:59 AM49 °FOvercast.14 mph38%30.05 "Hg10 mi
6:59 AM45 °FOvercast.14 mph38%30.07 "Hg10 mi
5:59 AM45 °FMostly cloudy.9 mph38%30.09 "Hg10 mi
3:59 AM43 °FPassing clouds.12 mph40%30.14 "Hg10 mi
2:59 AM44 °FPassing clouds.10 mph38%30.16 "Hg10 mi
1:59 AM43 °FPartly cloudy.10 mph42%30.20 "Hg10 mi
12:59 AM43 °FPartly cloudy.7 mph38%30.23 "Hg10 mi
11:59 PM
Sun, Mar 29
41 °FPassing clouds.5 mph47%30.24 "Hg10 mi
10:59 PM40 °FPassing clouds.5 mph51%30.25 "Hg10 mi
9:59 PM42 °FPassing clouds.9 mph43%30.27 "Hg10 mi
8:59 PM42 °FPassing clouds.3 mph36%30.29 "Hg10 mi
Weather by CustomWeather, © 2015

See weather overviewHow to use our weather pages